Los Angeles, CA

12:42 AM PDT on April 22, 2018 (GMT -0700)
Los Angeles International

Weather History for KLAX - March, 2014

Change the Weather History Date:

Tuesday, March 4, 2014

  Actual Average Record
Temperature  
Mean Temperature 60 °F 58 °F  
Max Temperature 65 °F 64 °F 87 °F (2012)
Min Temperature 54 °F 51 °F 38 °F (1951)
Degree Days  
Heating Degree Days 5 7  
Month to date heating degree days 24 31  
Since 1 July heating degree days 579 960  
Cooling Degree Days 0 0  
Month to date cooling degree days 0 0  
Year to date cooling degree days 16 9  
Growing Degree Days 10 (Base 50)    
Moisture  
Dew Point 54 °F    
Average Humidity 80    
Maximum Humidity 93    
Minimum Humidity 67    
Precipitation  
Precipitation 0.00 in 0.09 in 2.27 in (1978)
Month to date precipitation 0.35 0.35  
Year to date precipitation 3.14 6.31  
Since 1 July precipitation 4.18  
Sea Level Pressure  
Sea Level Pressure 30.03 in    
Wind  
Wind Speed 6 mph (SSE)    
Max Wind Speed 15 mph    
Max Gust Speed 35 mph    
Visibility 8 miles    
Events Fog    
T = Trace of Precipitation, MM = Missing Value Source: NWS Daily Summary

Daily Weather History Graph

Daily Weather History Graph

Search for Another Location

Airport or City:

Astronomy

Mar. 04, 2014 Rise Set
Actual Time 6:18 AM PST 5:52 PM PST
Civil Twilight 5:53 AM PST 6:17 PM PST
Nautical Twilight 5:24 AM PST 6:46 PM PST
Astronomical Twilight 4:55 AM PST 7:15 PM PST
Moon 8:19 AM PST (3/4) 9:51 PM PST (3/4)
Length of Visible Light 12h 24m
Length of Day
11h 34m
Waxing Crescent, 15% of the Moon is Illuminated
Mar 4
Waxing Crescent
Mar 8
First Quarter
Mar 16
Full
Mar 23
Last Quarter
Mar 30
New

Hourly Weather History & Observations

Time (PST) Temp. Dew Point Humidity Pressure Visibility Wind Dir Wind Speed Gust Speed Precip Events Conditions
12:53 AM 55.9 °F 52.0 °F 87% 30.05 in 10.0 mi ESE 4.6 mph - N/A Fog Patches of Fog
1:53 AM 55.0 °F 52.0 °F 89% 30.04 in 9.0 mi East 4.6 mph - N/A Fog Patches of Fog
2:53 AM 54.0 °F 51.1 °F 90% 30.04 in 8.0 mi ESE 4.6 mph - N/A Fog Patches of Fog
3:50 AM 53.6 °F 51.8 °F 94% 30.03 in 8.0 mi East 5.8 mph - N/A Fog Patches of Fog
3:53 AM 55.0 °F 52.0 °F 89% 30.02 in 8.0 mi East 5.8 mph - N/A Fog Patches of Fog
4:53 AM 55.9 °F 53.1 °F 90% 30.02 in 6.0 mi East 3.5 mph - N/A Fog Patches of Fog
5:53 AM 57.0 °F 53.1 °F 87% 30.02 in 6.0 mi NE 5.8 mph - N/A Fog Patches of Fog
6:53 AM 57.9 °F 53.1 °F 84% 30.04 in 5.0 mi ENE 4.6 mph - N/A Fog Patches of Fog
7:53 AM 57.0 °F 53.1 °F 87% 30.04 in 6.0 mi East 3.5 mph - N/A   Overcast
8:53 AM 59.0 °F 52.0 °F 78% 30.04 in 6.0 mi Variable 4.6 mph - N/A   Overcast
9:33 AM 60.8 °F 51.8 °F 72% 30.05 in 6.0 mi Variable 3.5 mph - N/A   Mostly Cloudy
9:53 AM 61.0 °F 52.0 °F 72% 30.06 in 6.0 mi NE 3.5 mph - N/A   Haze
10:01 AM 60.8 °F 53.6 °F 77% 30.06 in 6.0 mi Calm Calm - N/A   Haze
10:53 AM 63.0 °F 52.0 °F 67% 30.03 in 6.0 mi Calm Calm - N/A   Haze
11:53 AM 63.0 °F 53.1 °F 70% 30.04 in 6.0 mi West 11.5 mph - N/A   Haze
12:53 PM 63.0 °F 53.1 °F 70% 30.01 in 7.0 mi West 9.2 mph - N/A   Mostly Cloudy
1:53 PM 64.0 °F 53.1 °F 67% 29.99 in 8.0 mi West 8.1 mph - N/A   Mostly Cloudy
2:53 PM 64.0 °F 53.1 °F 67% 29.98 in 10.0 mi WSW 10.4 mph - N/A   Mostly Cloudy
3:53 PM 64.0 °F 54.0 °F 70% 29.99 in 10.0 mi SW 12.7 mph - N/A   Scattered Clouds
4:53 PM 63.0 °F 55.0 °F 75% 29.98 in 10.0 mi WSW 5.8 mph - N/A   Scattered Clouds
5:53 PM 62.1 °F 55.0 °F 78% 29.99 in 10.0 mi South 8.1 mph 34.5 mph N/A   Mostly Cloudy
6:13 PM 60.8 °F 55.4 °F 82% 30.00 in 10.0 mi South 6.9 mph - N/A   Mostly Cloudy
6:53 PM 61.0 °F 55.0 °F 81% 30.00 in 10.0 mi SSW 6.9 mph - N/A   Mostly Cloudy
7:53 PM 61.0 °F 55.9 °F 83% 30.03 in 10.0 mi South 6.9 mph - N/A   Overcast
8:29 PM 60.8 °F 55.4 °F 82% 30.03 in 10.0 mi South 5.8 mph - N/A   Overcast
8:53 PM 60.1 °F 55.9 °F 86% 30.04 in 10.0 mi SSW 3.5 mph - N/A   Overcast
9:26 PM 60.8 °F 55.4 °F 82% 30.05 in 10.0 mi South 4.6 mph - N/A   Overcast
9:53 PM 61.0 °F 55.9 °F 83% 30.05 in 10.0 mi Calm Calm - N/A   Overcast
10:53 PM 61.0 °F 55.0 °F 81% 30.05 in 10.0 mi ESE 4.6 mph - N/A   Overcast
11:53 PM 60.1 °F 54.0 °F 80% 30.05 in 10.0 mi ESE 4.6 mph - N/A   Scattered Clouds